CZ-6A DEB

Satellite information

Favourite Embed

Satellite Type and Status

DEBRISIN ORBIT

Key statistics

Satellite CZ-6A DEB at a glance.

Uptime

1030

Days in orbit

Revolutions

≈ 14.1

Per day

Orbit

SSO

Sun Synchronous Orbit

Inclination

98.9

Latest

Satellite identification and parameters

Extended collection of information and parameters for CZ-6A DEB.

Object identification

Identified? True

Debris? True

Object name: CZ-6A DEB

International designator: 2022-151GD

Object number (NORAD): 54453

Object ID (CCSDS): 54453

Country: PEOPLES REPUBLIC OF CHINA (PRC)

Current information (Y/N): Y

RCS size: SMALL

Orbital parameters

Period: 102.018 minutes

Inclination: 98.9184 deg

SMA: 7232.32 km

Apoapsis: 916.088 km

Periapsis: 792.283 km

RAAN: 255.4842 deg

Eccentricy: 0.00855914

Argument of periapsis: 34.1179 deg

Mean anomaly: 326.5453 deg

Mean motion: 14.11517577 rev/day

Mean motion (dot): 0.00004471 rev/day2

B* drag term: 0.0024036962 1/REarth

Two-line elements (TLE)

Creation date: Sept. 4, 2025, 10:13 a.m.

Reference frame: TEME

Reference center: EARTH

Epoch: Sept. 4, 2025, 7:17 a.m. UTC

TLE line 0: 0 CZ-6A DEB

TLE line 1: 1 54453U 22151GD 25247.30393888 .00004471 00000-0 24037-2 0 9998

TLE line 2: 2 54453 98.9184 255.4842 0085591 34.1179 326.5453 14.11517577144236

Live tracking on map

Real-time ground track for satellite CZ-6A DEB.

In-orbit conjunctions

A list of the most updated potential collisions computed for object CZ-6A DEB.

Target Orbit TCA Probability of collision Miss distance Type
THORAD AGENA D DEB SSO 2025-06-21 22:50:16 0.0003034673 34.0 (m) DEBRIS
CZ-6A DEB LEO 2024-11-24 14:57:05 0.0001784521 858.0 (m) DEBRIS
METEOR 2-5 DEB LEO 2024-09-13 23:45:43 0.0004439317 43.0 (m) DEBRIS

Associated space launch

Chinese satellite reported for atmospheric/ocean/environmental/spatial parameter research purposes, details TBD.

CZ-6A DEB was lifted into orbit during the mission ‘Long March 6A | Yunhai 3’, on board a Long March 6A space rocket.

The launch took place on Nov. 11, 2022, 10:52 p.m. from Launch Complex 9A.

For more information about the launch, click the button.

Launch to space Long March 6A | Yunhai 3
Long March 6A | Yunhai 3

Agency: N/A

Status: Launch Successful

Launch date: Nov. 11, 2022, 10:52 p.m. UTC

Rocket: Long March 6A

Launch pad: Launch Complex 9A

Location: Taiyuan Satellite Launch Center, People's Republic of China

...

Latest news about this satellite

There are no fresh news available about this satellite. Check back as we update our databases every day.


Newsletter sign-up

Weekly statistics, charts and insights to help you stay on top of the space industry.